Location: ShareBrained
(45.5589°N, 122.6491°W)
Time: 13:23:32
(UTC-08:00)

NOAA 19 - Pass Details

Date: 17 January 2020
Orbit: 840 x 862 km, 99.2° (Epoch: 24 February)

Event Time Altitude Azimuth Distance (km) Brightness Sun altitude
Rises 17:37:33 0° 184° (S) 3,416 8.7 -7.4°
Reaches altitude 10° 17:40:04 10° 192° (SSW) 2,481 8.1 -7.8°
Maximum altitude 17:45:14 41° 261° (W) 1,220 6.8 -8.7°
Drops below altitude 10° 17:50:25 10° 332° (NNW) 2,485 7.8 -9.5°
Sets 17:52:57 0° 339° (NNW) 3,422 8.4 -10.0°
